Time,TemperatureF,DewpointF,PressureIn,WindDirection,WindDirectionDegrees,WindSpeedMPH,WindSpeedGustMPH,Humidity,HourlyPrecipIn,Conditions,Clouds,dailyrainin,SoftwareType,DateUTC
2013-04-30 00:00:00,16.0,15.0,-100.00,West,259,13.0,23.0,96,-99.99,,,-99.99,,2013-04-30 07:00:00,
2013-04-30 01:00:00,17.0,16.0,-100.00,West,263,12.0,18.0,97,-99.99,,,-99.99,,2013-04-30 08:00:00,
2013-04-30 02:00:00,15.0,14.0,-100.00,NW,317,13.0,21.0,96,-99.99,,,-99.99,,2013-04-30 09:00:00,
2013-04-30 03:00:00,15.0,14.0,-100.00,West,267,12.0,20.0,96,-99.99,,,-99.99,,2013-04-30 10:00:00,
2013-04-30 06:00:00,14.0,13.0,-100.00,WSW,257,20.0,28.0,95,-99.99,,,-99.99,,2013-04-30 13:00:00,
2013-04-30 07:00:00,15.0,14.0,-100.00,West,275,22.0,30.0,96,-99.99,,,-99.99,,2013-04-30 14:00:00,
2013-04-30 08:00:00,14.0,13.0,-100.00,WNW,289,15.0,20.0,95,-99.99,,,-99.99,,2013-04-30 15:00:00,
2013-04-30 09:00:00,17.0,16.0,-100.00,West,275,9.0,16.0,96,-99.99,,,-99.99,,2013-04-30 16:00:00,
2013-04-30 10:00:00,19.0,18.0,-100.00,West,276,8.0,13.0,96,-99.99,,,-99.99,,2013-04-30 17:00:00,
2013-04-30 11:00:00,20.0,19.0,-100.00,West,261,8.0,13.0,97,-99.99,,,-99.99,,2013-04-30 18:00:00,
2013-04-30 12:00:00,21.0,20.0,-100.00,West,279,8.0,13.0,97,-99.99,,,-99.99,,2013-04-30 19:00:00,
2013-04-30 14:00:00,22.0,21.0,-100.00,West,278,13.0,22.0,97,-99.99,,,-99.99,,2013-04-30 21:00:00,
2013-04-30 15:00:00,22.0,21.0,-100.00,WNW,294,12.0,22.0,96,-99.99,,,-99.99,,2013-04-30 22:00:00,
2013-04-30 16:00:00,24.0,23.0,-100.00,WNW,290,16.0,23.0,95,-99.99,,,-99.99,,2013-04-30 23:00:00,
2013-04-30 17:00:00,23.0,22.0,-100.00,WNW,301,17.0,25.0,97,-99.99,,,-99.99,,2013-05-01 00:00:00,
2013-04-30 17:52:00,23.0,22.0,-100.00,WNW,301,17.0,25.0,97,-99.99,,,-99.99,,2013-05-01 00:52:00,
2013-04-30 18:00:00,23.0,22.0,-100.00,West,263,15.0,25.0,96,-99.99,,,-99.99,,2013-05-01 01:00:00,
2013-04-30 19:00:00,22.0,21.0,-100.00,WNW,287,18.0,27.0,94,-99.99,,,-99.99,,2013-05-01 02:00:00,
2013-04-30 20:00:00,18.0,17.0,-100.00,West,280,20.0,25.0,95,-99.99,,,-99.99,,2013-05-01 03:00:00,
2013-04-30 21:00:00,18.0,17.0,-100.00,West,260,20.0,25.0,96,-99.99,,,-99.99,,2013-05-01 04:00:00,
2013-04-30 22:00:00,20.0,19.0,-100.00,West,274,20.0,24.0,97,-99.99,,,-99.99,,2013-05-01 05:00:00,
2013-04-30 23:00:00,18.0,17.0,-100.00,WNW,284,20.0,23.0,97,-99.99,,,-99.99,,2013-05-01 06:00:00,